[[{"header":{"parameterUnit":"m.s-1","parameterCategory":1,"la1":30.2991,"la2":30.254,"lo1":-89.0895,"lo2":-89.0444,"dy":0.0017,"dx":0.0017,"nx":28,"ny":28,"refTime":"2023-08-15T03:00:00:Z","depth":0,"parameterNumber":2,"parameterNumberName":"U-component_of_WINDS"},"data":[0,0,0,0,0,0,0,0,0,0,0,0,0,0,0,0,0,0,0,0,0,0,0,0,0,0,0,0,0,0,0,0,0,0,0,0,0,0,0,0,0,0,0,0,0,0,0,0,0,0,0,0,0,0,0,0,0,0,4.5978,4.5977,0,4.595,4.595,4.5949,4.5757,4.5752,4.5748,4.5743,4.5721,4.5724,4.5728,0,0,0,0,0,0,0,0,0,0,0,0,0,4.5868,4.5871,4.5978,4.5977,4.5977,4.595,4.595,4.5949,4.5758,4.5752,4.5746,4.5741,4.5719,4.5724,4.5728,0,0,0,0,0,0,0,0,0,0,0,0,0,4.5886,4.5872,4.5978,4.5878,4.5869,4.595,4.595,4.5949,4.5759,4.5752,4.5745,4.5738,4.5718,4.5723,4.5729,4.5906,0,0,4.5746,4.5749,0,0,0,0,0,0,0,0,4.5885,4.589,4.5893,4.5885,4.5875,4.5849,4.5902,4.5935,4.5761,4.5801,4.5743,4.5735,4.577,4.5771,4.5781,4.5905,4.5904,4.5747,4.575,4.5753,4.5754,0,0,0,0,0,0,0,4.5884,4.589,4.5967,4.5893,4.5882,4.5836,4.5831,4.5908,4.5826,4.5797,4.5783,4.5782,4.5763,4.5776,4.5779,4.5903,4.5747,4.5752,4.5755,4.5757,4.6167,4.6174,0,0,0,0,0,0,4.5896,4.589,4.5968,4.5966,4.5862,4.5844,4.5838,4.5865,4.5824,4.5811,4.5788,4.5773,4.577,4.5773,4.5778,4.5979,4.5753,4.5758,4.5761,4.616,4.6169,4.6177,0,0,0,0,0,0,4.5895,4.5905,4.5969,4.5924,4.5929,4.5853,4.5885,4.5868,4.588,4.5817,4.5802,4.5816,4.5764,4.577,4.5874,4.5975,4.5761,4.5766,4.6151,4.6162,4.6173,4.6385,0,0,0,0,0,0,4.5892,4.5905,4.5971,4.5927,4.5932,4.6065,4.5891,4.5873,4.589,4.587,4.5839,4.5827,4.5759,4.5867,4.588,4.5979,4.577,4.6141,4.6156,4.6169,4.6369,4.6402,4.6431,0,0,0,0,0,4.5889,4.6034,4.5975,4.5986,4.6012,4.6072,4.6074,4.5991,4.5899,4.5965,4.5924,4.5828,4.5963,4.5879,4.5892,4.5995,4.6134,4.6152,4.6168,4.6355,4.6396,4.643,0,0,0,0,0,0,4.6095,4.6027,4.5961,4.6096,4.6091,4.6039,4.6119,4.6038,4.606,4.6041,4.5938,4.5933,4.6053,4.6034,4.5942,4.6162,4.6032,4.6052,4.617,4.6208,4.6238,4.624,4.5775,0,0,0,0,0,4.6155,4.6208,4.6146,4.6271,4.6271,4.6197,4.6219,4.6155,4.6146,4.6144,4.611,4.6107,4.6148,4.6177,4.6212,4.6366,4.6355,4.6443,4.6474,4.65,4.6518,4.6596,4.6633,4.6232,4.6232,4.6231,0,0,4.6282,4.6251,4.6291,4.6311,4.63,4.6357,4.6196,4.6264,4.6305,4.6155,4.6249,4.6226,4.6215,4.6344,4.64,4.6333,4.6627,4.6521,4.6542,4.6546,4.6617,4.6655,4.6689,4.6243,4.6241,4.6239,0,0,4.6541,4.6524,4.6624,4.6615,4.6598,4.6547,4.6572,4.6532,4.6509,4.6602,4.649,4.6539,4.6612,4.6608,4.6616,4.6871,4.6784,4.6886,4.7048,4.7125,4.7156,4.7184,4.7273,4.7306,4.6905,4.6905,4.6906,0,4.6701,4.678,4.6687,4.6761,4.6772,4.6637,4.6737,4.6734,4.6731,4.6743,4.6668,4.6755,4.6738,4.6863,4.6925,4.6937,4.6961,4.6888,4.7159,4.7186,4.721,4.7293,4.7328,4.6917,4.6916,4.6915,4.6914,0,4.6976,4.7033,4.7117,4.7113,4.7135,4.7223,4.7143,4.7176,4.7111,4.7068,4.7164,4.7139,4.7165,4.719,4.7129,4.7307,4.7265,4.7177,4.7043,4.7262,4.7339,4.737,4.6935,4.6931,4.6927,4.6924,0,0,4.7364,4.7306,4.7338,4.7333,4.7304,4.7347,4.7429,4.7451,4.7481,4.7484,4.7548,4.7613,4.7529,4.7539,4.7475,4.7543,4.7744,4.7445,4.7443,4.7499,4.7936,4.8001,4.804,4.7686,4.7692,4.7697,4.7936,0,4.761,4.7743,4.766,4.7806,4.7856,4.7728,4.7798,4.7789,4.7751,4.7789,4.7748,4.7794,4.7682,4.7686,4.7747,4.7706,4.783,4.7688,4.7745,4.7748,4.7749,4.808,4.8149,4.8377,4.7966,4.7971,4.7974,0,4.7915,4.7927,4.8077,4.8035,4.8053,4.8118,4.813,4.8169,4.8155,4.8123,4.8132,4.8051,4.8128,4.7998,4.8102,4.8008,4.8027,4.8011,4.8017,4.8018,4.7873,4.8087,4.8447,4.8481,4.8021,4.8017,4.8014,0,4.8179,4.8234,4.8329,4.833,4.8284,4.8332,4.8316,4.8295,4.8313,4.8326,4.8336,4.8359,4.8371,4.839,4.8318,4.823,4.8431,4.8296,4.8406,4.8408,4.8453,4.845,4.8818,4.847,4.8469,4.8468,4.8468,0,4.8461,4.8557,4.8446,4.8505,4.8609,4.8514,4.862,4.859,4.8573,4.8624,4.8516,4.8567,4.8468,4.851,4.8454,4.8548,4.8555,4.8531,4.8514,4.8539,4.8542,4.8548,4.853,4.8477,4.8475,4.8474,4.8472,0,4.8773,4.8703,4.8798,4.8746,4.8735,4.8814,4.877,4.8822,4.8776,4.8843,4.8853,4.8782,4.8825,4.8754,4.879,4.8752,4.8881,4.8842,4.8885,4.8873,4.8986,4.8975,4.9369,4.9415,4.904,4.9043,4.9047,0,4.8956,4.9026,4.8981,4.9006,4.8995,4.9038,4.9054,4.8964,4.8986,4.8975,4.9029,4.9062,4.9083,4.9158,4.911,4.9136,4.9095,4.9231,4.9099,4.912,4.9094,4.909,4.9095,4.9258,4.9263,4.9267,4.927,0,4.9288,4.9249,4.9275,4.9291,4.9313,4.9321,4.9322,4.9349,4.9254,4.9284,4.9325,4.9341,4.9376,4.941,4.9424,4.9408,4.9324,4.9312,4.9338,4.9363,4.9384,4.9371,4.8957,4.9303,4.93,4.9297,4.9295,4.9294,4.9538,4.9594,4.9569,4.9603,4.9593,4.9595,4.9641,4.96,4.9631,4.965,4.9595,4.9649,4.9632,4.9642,4.9635,4.9676,4.9616,4.9656,4.9665,4.9675,4.9692,4.938,4.9679,4.9678,4.9677,4.9676,4.9676,0,4.9862,4.9839,4.9871,4.9873,4.9899,4.9815,4.9811,4.9839,4.9886,4.9877,4.9899,4.9945,4.9978,4.9932,4.9956,4.9998,4.996,5.0007,5.0002,4.9999,4.9746,4.9719,5.0038,5.0038,5.0038,5.0037,5.0037,5.0037,5.0033,5.012,5.0079,5.0161,5.0138,5.0187,5.0191,5.0193,5.0184,5.024,5.0265,5.0234,5.0211,5.0232,5.0258,5.0243,5.0257,5.0318,5.029,5.0053,5.0018,4.9984,4.9958,5.0322,5.0322,5.054,5.0542,5.0543]},{"header":{"parameterUnit":"m.s-1","parameterCategory":1,"la1":30.2991,"la2":30.254,"lo1":-89.0895,"lo2":-89.0444,"dy":0.0017,"dx":0.0017,"nx":28,"ny":28,"refTime":"2023-08-15T03:00:00:Z","depth":0,"parameterNumber":3,"parameterNumberName":"V-component_of_WINDS"},"data":[0,0,0,0,0,0,0,0,0,0,0,0,0,0,0,0,0,0,0,0,0,0,0,0,0,0,0,0,0,0,0,0,0,0,0,0,0,0,0,0,0,0,0,0,0,0,0,0,0,0,0,0,0,0,0,0,0,0,3.6484,3.6486,0,3.6673,3.6675,3.6677,3.672,3.6719,3.6717,3.6716,3.6905,3.6911,3.6917,0,0,0,0,0,0,0,0,0,0,0,0,0,3.6152,3.6158,3.6483,3.6486,3.6488,3.6672,3.6675,3.6678,3.672,3.6719,3.6717,3.6716,3.6903,3.691,3.6917,0,0,0,0,0,0,0,0,0,0,0,0,0,3.6314,3.616,3.6483,3.6532,3.6538,3.6672,3.6675,3.6678,3.6721,3.6719,3.6717,3.6715,3.69,3.6909,3.6918,3.7016,0,0,3.6947,3.6951,0,0,0,0,0,0,0,0,3.6305,3.6326,3.6522,3.6529,3.6536,3.6671,3.6627,3.6791,3.6721,3.6651,3.6716,3.6714,3.6828,3.6843,3.6883,3.7024,3.7033,3.6948,3.6954,3.6958,3.696,0,0,0,0,0,0,0,3.6293,3.6318,3.6558,3.6525,3.6533,3.6542,3.6563,3.6659,3.6748,3.6657,3.6661,3.6683,3.6831,3.6874,3.6888,3.7035,3.6948,3.6956,3.6962,3.6965,3.7263,3.7265,0,0,0,0,0,0,3.6275,3.6309,3.6552,3.6564,3.6413,3.655,3.6573,3.6629,3.6747,3.6763,3.6684,3.6684,3.6859,3.6877,3.6894,3.7014,3.6958,3.6966,3.6972,3.7261,3.7264,3.7266,0,0,0,0,0,0,3.6267,3.6296,3.6545,3.6437,3.647,3.6557,3.6621,3.6634,3.6677,3.6768,3.6783,3.6712,3.6858,3.6881,3.6985,3.7022,3.6971,3.6979,3.7258,3.7262,3.7265,3.7256,0,0,0,0,0,0,3.6258,3.6293,3.6333,3.6438,3.6475,3.6634,3.6623,3.6639,3.6693,3.6695,3.6798,3.6813,3.6858,3.6971,3.6994,3.7034,3.6986,3.7255,3.726,3.7264,3.7253,3.7258,3.7263,0,0,0,0,0,3.6246,3.6322,3.6334,3.6364,3.6527,3.6636,3.6657,3.671,3.6696,3.6735,3.6794,3.6809,3.7014,3.6981,3.7008,3.705,3.7253,3.7258,3.7264,3.7251,3.7257,3.7263,0,0,0,0,0,0,3.6217,3.6337,3.6352,3.6465,3.654,3.6643,3.6694,3.6715,3.6794,3.6792,3.6852,3.6875,3.6974,3.7023,3.6984,3.7149,3.7133,3.7144,3.7114,3.7121,3.7126,3.7111,3.6994,0,0,0,0,0,3.6224,3.6305,3.6404,3.6494,3.6531,3.6606,3.6656,3.6689,3.6769,3.6801,3.6867,3.6941,3.7022,3.7074,3.7154,3.726,3.7282,3.7303,3.7307,3.7311,3.7319,3.7377,3.7386,3.7283,3.7283,3.7283,0,0,3.6239,3.6314,3.6361,3.649,3.6552,3.6632,3.6633,3.6718,3.6777,3.6813,3.6915,3.6966,3.7053,3.7158,3.7207,3.7201,3.7353,3.7318,3.732,3.7326,3.7383,3.7393,3.7401,3.7287,3.7286,3.7285,0,0,3.6307,3.6373,3.6454,3.6517,3.6611,3.6661,3.668,3.678,3.6815,3.6919,3.6947,3.7017,3.7156,3.7217,3.7266,3.7354,3.7371,3.7379,3.7404,3.7459,3.7467,3.7475,3.7505,3.7515,3.7387,3.7387,3.7387,0,3.6313,3.6437,3.6493,3.6577,3.6631,3.6669,3.675,3.6807,3.6922,3.6958,3.695,3.7124,3.7186,3.7304,3.7326,3.7365,3.7387,3.7367,3.7462,3.747,3.7478,3.7507,3.7518,3.7387,3.7387,3.7387,3.7387,0,3.6438,3.6523,3.6577,3.6689,3.675,3.6831,3.6898,3.6952,3.698,3.7029,3.7132,3.7208,3.7302,3.7333,3.7361,3.7455,3.7448,3.745,3.7435,3.7487,3.7515,3.7527,3.7387,3.7387,3.7387,3.7387,0,0,3.6494,3.6635,3.6654,3.6704,3.681,3.6876,3.6958,3.7052,3.7097,3.7174,3.7243,3.7359,3.7362,3.7417,3.7452,3.75,3.7563,3.7497,3.7499,3.7505,3.7669,3.7666,3.7678,3.7575,3.7578,3.758,3.7661,0,3.6574,3.6725,3.6777,3.69,3.6978,3.7014,3.7085,3.7156,3.7204,3.7275,3.7327,3.7408,3.7406,3.7439,3.7489,3.7545,3.7597,3.754,3.7638,3.764,3.7614,3.7693,3.769,3.7764,3.7673,3.7675,3.7676,0,3.6687,3.6768,3.6899,3.6994,3.7029,3.7092,3.7181,3.725,3.733,3.7361,3.7423,3.7454,3.7538,3.7518,3.7634,3.7595,3.7637,3.7671,3.7675,3.7685,3.7661,3.7704,3.7789,3.7799,3.7694,3.7693,3.7691,0,3.6712,3.6853,3.695,3.6992,3.7106,3.7149,3.7198,3.7277,3.733,3.7407,3.7441,3.7526,3.7573,3.7637,3.7689,3.767,3.78,3.7785,3.7826,3.7825,3.7851,3.7849,3.7942,3.7881,3.788,3.788,3.788,0,3.6796,3.6874,3.6962,3.7021,3.7109,3.7167,3.7252,3.7303,3.7373,3.7441,3.7477,3.7539,3.7605,3.7675,3.7716,3.7805,3.7826,3.7851,3.7861,3.7848,3.7844,3.7876,3.7871,3.7883,3.7883,3.7882,3.7882,0,3.6838,3.6901,3.7008,3.7107,3.7134,3.7194,3.7278,3.7335,3.7384,3.7469,3.7492,3.7568,3.7652,3.7711,3.7819,3.7846,3.7942,3.7952,3.7915,3.7919,3.7957,3.7952,3.8073,3.8091,3.8018,3.8019,3.802,0,3.6887,3.6948,3.7053,3.7102,3.7152,3.723,3.7284,3.7342,3.7396,3.7492,3.7537,3.7624,3.7697,3.783,3.7893,3.7975,3.7986,3.8023,3.7999,3.7983,3.7985,3.798,3.7985,3.8026,3.8027,3.8027,3.8028,0,3.6965,3.6993,3.707,3.7158,3.7221,3.7293,3.7364,3.7402,3.7472,3.7531,3.7618,3.7675,3.7785,3.787,3.7958,3.8006,3.8028,3.8035,3.8049,3.8035,3.801,3.8022,3.7923,3.8032,3.8031,3.8031,3.8031,3.8031,3.7011,3.7067,3.7149,3.7233,3.7294,3.7359,3.7418,3.7474,3.7548,3.7644,3.7673,3.7763,3.784,3.7961,3.801,3.808,3.8077,3.8097,3.8102,3.8106,3.8105,3.8,3.8096,3.8096,3.8096,3.8096,3.8096,0,3.709,3.7145,3.7222,3.7321,3.7387,3.7403,3.7483,3.7536,3.7615,3.7686,3.7757,3.7856,3.7938,3.8008,3.8093,3.8135,3.8147,3.8155,3.8152,3.8162,3.8103,3.8082,3.8144,3.8144,3.8144,3.8144,3.8144,3.8144,3.7139,3.7233,3.727,3.7393,3.7447,3.7537,3.758,3.764,3.7697,3.7806,3.7876,3.7921,3.7991,3.808,3.8156,3.8174,3.8202,3.8208,3.8228,3.8172,3.8166,3.8161,3.8142,3.8214,3.8214,3.8281,3.8282,3.8282]}]]